[[{"header":{"parameterUnit":"m.s-1","parameterCategory":2,"la1":30.2991,"la2":30.254,"lo1":-89.0895,"lo2":-89.0444,"dy":0.0017,"dx":0.0017,"nx":28,"ny":28,"refTime":"2024-04-30T09:00:00:Z","depth":"0","parameterNumber":2,"parameterNumberName":"U-component_of_CURRENTS"},"data":[0,0,0,0,0,0,0,0,0,0,0,0,0,0,0,0,0,0,0,0,0,0,0,0,0,0,0,0,0,0,0,0,0,0,0,0,0,0,0,0,0,0,0,0,0,0,0,0,0,0,0,0,0,0,0,0,0,0,0.311,0.3111,0,0.3086,0.3085,0.3084,0.2948,0.2946,0.2944,0.2942,0.2777,0.2775,0.2772,0,0,0,0,0,0,0,0,0,0,0,0,0,0.2977,0.2979,0.311,0.3111,0.3112,0.3087,0.3085,0.3083,0.2948,0.2946,0.2944,0.2941,0.2778,0.2775,0.2772,0,0,0,0,0,0,0,0,0,0,0,0,0,0.2989,0.298,0.311,0.3052,0.3048,0.3087,0.3085,0.3083,0.2949,0.2946,0.2943,0.294,0.2779,0.2775,0.2772,0.2806,0,0,0.276,0.2758,0,0,0,0,0,0,0,0,0.2988,0.2992,0.306,0.3056,0.3052,0.303,0.2978,0.2988,0.295,0.2971,0.2942,0.2939,0.286,0.285,0.2833,0.2798,0.2791,0.2759,0.2757,0.2755,0.2754,0,0,0,0,0,0,0,0.2988,0.2992,0.3086,0.3061,0.3057,0.3008,0.3005,0.2979,0.2919,0.2969,0.2963,0.2984,0.2854,0.2837,0.2828,0.2789,0.276,0.2756,0.2754,0.2752,0.2702,0.2703,0,0,0,0,0,0,0.3027,0.2993,0.3087,0.3087,0.3029,0.3014,0.301,0.3028,0.2922,0.2908,0.2987,0.2978,0.2845,0.2833,0.2822,0.2787,0.2755,0.2752,0.275,0.2701,0.2703,0.2704,0,0,0,0,0,0,0.3024,0.3036,0.3088,0.305,0.3055,0.3021,0.3041,0.3029,0.3011,0.2939,0.2919,0.2982,0.2842,0.2827,0.2798,0.2782,0.275,0.2747,0.27,0.2702,0.2703,0.2761,0,0,0,0,0,0,0.302,0.3034,0.3064,0.3053,0.3059,0.3119,0.3045,0.3032,0.3036,0.3024,0.293,0.2911,0.2839,0.2804,0.2794,0.2776,0.2744,0.2699,0.2701,0.2703,0.2758,0.2765,0.277,0,0,0,0,0,0.3015,0.3073,0.3065,0.3077,0.3099,0.3122,0.3119,0.3075,0.3039,0.3043,0.2976,0.2913,0.2807,0.2803,0.2791,0.277,0.2698,0.27,0.2703,0.2756,0.2763,0.277,0,0,0,0,0,0,0.3047,0.3067,0.3056,0.3121,0.3127,0.3105,0.3122,0.3095,0.3048,0.303,0.2939,0.2918,0.2882,0.2839,0.2836,0.2765,0.2738,0.2738,0.2783,0.279,0.2796,0.2779,0.274,0,0,0,0,0,0.3073,0.3107,0.3118,0.3173,0.3178,0.3153,0.316,0.3133,0.31,0.3075,0.301,0.2942,0.2887,0.285,0.2803,0.278,0.2771,0.2757,0.2764,0.2769,0.2749,0.276,0.2765,0.2711,0.2711,0.2711,0,0,0.3113,0.3124,0.3151,0.3181,0.3175,0.3171,0.3145,0.3167,0.3139,0.3069,0.3011,0.2973,0.2892,0.2847,0.2826,0.2803,0.2787,0.2772,0.2776,0.2753,0.2763,0.2768,0.2773,0.2713,0.2712,0.2712,0,0,0.3172,0.3207,0.3229,0.3231,0.3242,0.322,0.3233,0.3213,0.3176,0.315,0.3077,0.3036,0.2962,0.2886,0.284,0.2863,0.283,0.2853,0.285,0.2863,0.2868,0.2871,0.2898,0.2903,0.2842,0.2843,0.2843,0,0.3211,0.3223,0.3245,0.3246,0.3235,0.3239,0.3225,0.321,0.3177,0.3135,0.3136,0.302,0.2967,0.2878,0.2876,0.2869,0.2887,0.2826,0.2871,0.2874,0.2876,0.2903,0.2908,0.2846,0.2845,0.2845,0.2845,0,0.3245,0.3256,0.3275,0.3252,0.3253,0.326,0.3237,0.322,0.3188,0.3149,0.309,0.3046,0.2961,0.2951,0.2913,0.2888,0.2902,0.2891,0.2852,0.2885,0.2911,0.2916,0.285,0.2849,0.2848,0.2847,0,0,0.3295,0.3292,0.3292,0.3245,0.3243,0.3227,0.3207,0.3152,0.3101,0.3097,0.3032,0.297,0.2962,0.2913,0.2882,0.2889,0.2939,0.2901,0.29,0.2926,0.2993,0.2997,0.3002,0.2951,0.2951,0.2952,0.3016,0,0.3287,0.3262,0.3269,0.3218,0.3179,0.3168,0.3128,0.3089,0.3062,0.3016,0.2991,0.2938,0.2944,0.2918,0.293,0.2934,0.2948,0.2923,0.2956,0.2957,0.2954,0.3005,0.2933,0.2984,0.302,0.3021,0.3021,0,0.3265,0.3241,0.3198,0.3118,0.3102,0.3086,0.299,0.2966,0.2929,0.2911,0.2895,0.2892,0.2887,0.2909,0.2944,0.2939,0.2965,0.2983,0.2986,0.2961,0.2967,0.2949,0.2989,0.2966,0.3027,0.3027,0.3026,0,0.3183,0.3162,0.3107,0.3091,0.3038,0.3003,0.2974,0.2926,0.2883,0.2871,0.2865,0.286,0.2884,0.2918,0.2978,0.2967,0.3046,0.3028,0.3052,0.3053,0.2977,0.2971,0.2987,0.3051,0.305,0.305,0.305,0,0.3114,0.3056,0.3071,0.3027,0.2939,0.294,0.2852,0.2827,0.2818,0.278,0.2823,0.2829,0.2898,0.2954,0.2987,0.3052,0.3058,0.3056,0.3068,0.3001,0.2996,0.2958,0.2914,0.3053,0.3052,0.3052,0.3051,0,0.2993,0.3018,0.2935,0.2905,0.2892,0.2829,0.2788,0.2727,0.2759,0.2737,0.2748,0.2826,0.2917,0.2983,0.3057,0.3073,0.3039,0.3131,0.3061,0.3062,0.3039,0.2999,0.2832,0.2734,0.3154,0.3154,0.3155,0,0.2911,0.2869,0.2837,0.2793,0.278,0.2716,0.2661,0.2678,0.2655,0.2732,0.2728,0.2839,0.2892,0.3027,0.3083,0.3149,0.3053,0.311,0.3053,0.3033,0.2997,0.2837,0.2754,0.2992,0.2991,0.2991,0.299,0,0.2733,0.2749,0.2693,0.2631,0.2586,0.2525,0.2495,0.2481,0.2531,0.2568,0.2652,0.2721,0.2888,0.2956,0.3072,0.3091,0.2964,0.3095,0.308,0.2874,0.2688,0.2602,0.2973,0.2983,0.2983,0.2984,0.2984,0.2985,0.2592,0.2533,0.2498,0.2426,0.2385,0.2345,0.2281,0.2311,0.2316,0.2383,0.2532,0.263,0.2832,0.299,0.2995,0.301,0.2912,0.2962,0.2921,0.2766,0.2634,0.3001,0.3019,0.302,0.3021,0.3021,0.3022,0,0.2381,0.2353,0.2282,0.2213,0.2142,0.2183,0.2156,0.2121,0.2133,0.2267,0.2357,0.2581,0.2695,0.2835,0.2956,0.2882,0.2694,0.2809,0.2575,0.2504,0.2865,0.2827,0.2796,0.2796,0.2796,0.2796,0.2796,0.2796,0.2264,0.2151,0.2141,0.2,0.1967,0.1876,0.1859,0.1866,0.1939,0.2054,0.2191,0.234,0.2656,0.2843,0.2863,0.2786,0.2555,0.2429,0.2382,0.2692,0.2703,0.2713,0.2671,0.2607,0.2606,0.1929,0.1924,0.1921]},{"header":{"parameterUnit":"m.s-1","parameterCategory":2,"la1":30.2991,"la2":30.254,"lo1":-89.0895,"lo2":-89.0444,"dy":0.0017,"dx":0.0017,"nx":28,"ny":28,"refTime":"2024-04-30T09:00:00:Z","depth":"0","parameterNumber":3,"parameterNumberName":"V-component_of_CURRENTS"},"data":[0,0,0,0,0,0,0,0,0,0,0,0,0,0,0,0,0,0,0,0,0,0,0,0,0,0,0,0,0,0,0,0,0,0,0,0,0,0,0,0,0,0,0,0,0,0,0,0,0,0,0,0,0,0,0,0,0,0,0.0437,0.0437,0,0.0375,0.0374,0.0373,0.0321,0.0321,0.0321,0.032,0.0168,0.0164,0.0161,0,0,0,0,0,0,0,0,0,0,0,0,0,0.0362,0.0364,0.0437,0.0437,0.0436,0.0375,0.0374,0.0372,0.0321,0.0321,0.032,0.032,0.0169,0.0165,0.016,0,0,0,0,0,0,0,0,0,0,0,0,0,0.0354,0.0365,0.0437,0.0405,0.0402,0.0375,0.0374,0.0372,0.0321,0.0321,0.032,0.032,0.0171,0.0165,0.016,0.0132,0,0,0.0142,0.014,0,0,0,0,0,0,0,0,0.0354,0.0356,0.0411,0.0408,0.0404,0.0358,0.0291,0.0288,0.0321,0.0349,0.032,0.032,0.0226,0.0215,0.0201,0.0125,0.0118,0.0142,0.0138,0.0136,0.0134,0,0,0,0,0,0,0,0.0355,0.0358,0.0409,0.041,0.0406,0.0343,0.0342,0.029,0.0286,0.0346,0.0343,0.0341,0.0223,0.0207,0.0197,0.0116,0.0142,0.0137,0.0133,0.0131,-0.0011,-0.0011,0,0,0,0,0,0,0.0378,0.036,0.0411,0.0408,0.0381,0.0345,0.0345,0.0371,0.0288,0.0277,0.0342,0.0339,0.0217,0.0204,0.0191,0.0138,0.0136,0.013,0.0127,-0.001,-0.0011,-0.0011,0,0,0,0,0,0,0.0377,0.0385,0.0414,0.0382,0.0382,0.0349,0.0377,0.037,0.0354,0.0287,0.0273,0.0334,0.0216,0.0199,0.0139,0.0132,0.0128,0.0123,-0.001,-0.0011,-0.0011,0.0041,0,0,0,0,0,0,0.0376,0.0385,0.0407,0.0385,0.0385,0.0402,0.0378,0.0369,0.0355,0.0351,0.0275,0.0261,0.0215,0.0148,0.0133,0.0124,0.0118,-0.001,-0.001,-0.0011,0.004,0.0042,0.0045,0,0,0,0,0,0.0374,0.0411,0.0409,0.0414,0.0419,0.0403,0.0396,0.0367,0.0355,0.0351,0.0294,0.0263,0.0134,0.0142,0.0126,0.0115,-0.0009,-0.001,-0.0011,0.0039,0.0042,0.0045,0,0,0,0,0,0,0.0394,0.0409,0.0406,0.0448,0.0428,0.0396,0.0392,0.0372,0.0326,0.032,0.0253,0.0235,0.018,0.0141,0.0153,0.0073,0.0059,0.0055,0.0103,0.0105,0.0107,0.0133,0.0113,0,0,0,0,0,0.041,0.0439,0.0431,0.046,0.0456,0.0424,0.0413,0.0395,0.0355,0.0336,0.0282,0.0222,0.0164,0.0131,0.0077,0.0031,0.0016,0.0014,0.0017,0.0019,0.0029,0.001,0.0012,-0.0014,-0.0014,-0.0014,0,0,0.0429,0.0437,0.0455,0.0465,0.0447,0.0439,0.0416,0.0408,0.0388,0.0325,0.0278,0.0227,0.0154,0.0102,0.0074,0.0067,0.0017,0.0018,0.0021,0.0029,0.0009,0.0012,0.0015,-0.0014,-0.0014,-0.0014,0,0,0.0455,0.0485,0.0502,0.0492,0.0475,0.0456,0.0457,0.0426,0.04,0.0354,0.0302,0.0253,0.0165,0.0115,0.0077,0.0061,0.0032,0.0041,0.007,0.0052,0.0054,0.0056,0.0042,0.0042,0.0042,0.0042,0.0042,0,0.047,0.05,0.05,0.05,0.0494,0.0467,0.0466,0.0437,0.0385,0.0363,0.0346,0.0232,0.0172,0.0108,0.0101,0.0067,0.0056,0.0066,0.0058,0.0059,0.006,0.0045,0.0045,0.0044,0.0044,0.0044,0.0043,0,0.0496,0.0514,0.0523,0.0519,0.051,0.051,0.0477,0.0455,0.0425,0.0392,0.0333,0.0261,0.0198,0.0168,0.0124,0.0096,0.0085,0.0066,0.0057,0.0067,0.0049,0.0048,0.0048,0.0047,0.0046,0.0045,0,0,0.054,0.0543,0.0543,0.0541,0.0524,0.0519,0.0492,0.046,0.0447,0.0393,0.0373,0.0274,0.0254,0.021,0.0156,0.0134,0.0127,0.0109,0.0107,0.0108,0.0093,0.008,0.0077,0.0111,0.0111,0.0111,0.0079,0,0.0552,0.0564,0.0559,0.0561,0.0563,0.0537,0.0516,0.0483,0.0449,0.0424,0.0358,0.0316,0.0263,0.0241,0.0211,0.015,0.0126,0.0138,0.0073,0.0071,0.0068,0.0076,0.0113,0.0087,0.0077,0.0077,0.0077,0,0.057,0.0575,0.0586,0.0582,0.0582,0.0578,0.0556,0.0535,0.0491,0.0467,0.0427,0.0382,0.033,0.0295,0.021,0.0222,0.0165,0.012,0.0117,0.0088,0.0056,0.0073,0.0085,-0.0003,0.0075,0.0075,0.0075,0,0.0585,0.0593,0.0604,0.0603,0.0594,0.0591,0.0585,0.0549,0.0543,0.0506,0.0513,0.0436,0.0419,0.0339,0.0242,0.0229,0.0165,0.0131,0.0062,0.006,0.0071,0.007,0.0002,0.0077,0.0077,0.0078,0.0078,0,0.0597,0.0603,0.0616,0.0619,0.0636,0.0621,0.063,0.0609,0.0602,0.0619,0.0549,0.0559,0.0434,0.0378,0.0276,0.0176,0.0188,0.0075,0.0053,0.0088,0.0089,-0.0005,-0.0088,0.0076,0.0077,0.0077,0.0077,0,0.0597,0.0608,0.0622,0.0632,0.0642,0.0653,0.0677,0.0685,0.0677,0.0706,0.0704,0.0657,0.0591,0.0461,0.0337,0.0231,0.0073,0.0081,0.0132,0.0117,-0.004,-0.0122,-0.0231,-0.0243,-0.0001,-0.0001,-0.0001,0,0.0596,0.0604,0.0637,0.0658,0.0665,0.0689,0.071,0.0717,0.0744,0.0774,0.0803,0.0754,0.074,0.0554,0.0364,0.0187,0.0075,0.0078,0.0047,-0.0037,-0.0145,-0.0192,-0.0196,0.0081,0.0081,0.0081,0.0081,0,0.0589,0.0605,0.0623,0.067,0.0706,0.0747,0.079,0.0831,0.0859,0.0899,0.0959,0.0958,0.0805,0.0655,0.0402,0.0266,0.0023,0.0076,-0.0021,-0.0095,-0.0141,-0.0164,0.0088,0.0084,0.0083,0.0083,0.0083,0.0083,0.0589,0.0604,0.064,0.0683,0.0734,0.0805,0.0847,0.0917,0.099,0.1081,0.1085,0.113,0.0917,0.0592,0.0385,0.0053,0.0033,-0.0047,-0.0141,-0.018,-0.0191,0.0064,0.0037,0.0037,0.0036,0.0036,0.0036,0,0.0584,0.0609,0.0649,0.0713,0.0771,0.08,0.0898,0.0954,0.1061,0.1185,0.125,0.1221,0.0918,0.0609,0.0159,-0.0097,-0.0172,-0.0245,-0.0296,-0.029,-0.006,-0.0054,-0.009,-0.009,-0.009,-0.009,-0.0089,-0.0089,0.0583,0.0614,0.0637,0.073,0.0782,0.0869,0.093,0.1029,0.1138,0.13,0.1394,0.1459,0.1313,0.0388,-0.0174,-0.032,-0.0463,-0.053,-0.0602,-0.0452,-0.0439,-0.0427,-0.0438,-0.0554,-0.0554,-0.0737,-0.074,-0.0742]}],[{"header":{"parameterUnit":"m.s-1","parameterCategory":2,"la1":30.2991,"la2":30.254,"lo1":-89.0895,"lo2":-89.0444,"dy":0.0017,"dx":0.0017,"nx":28,"ny":28,"refTime":"2024-04-30T09:00:00:Z","depth":"2","parameterNumber":2,"parameterNumberName":"U-component_of_CURRENTS"},"data":[0,0,0,0,0,0,0,0,0,0,0,0,0,0,0,0,0,0,0,0,0,0,0,0,0,0,0,0,0,0,0,0,0,0,0,0,0,0,0,0,0,0,0,0,0,0,0,0,0,0,0,0,0,0,0,0,0,0,0.2729,0.273,0,0.2758,0.2758,0.2757,0.2703,0.2702,0.2701,0.2701,0.2613,0.2612,0.261,0,0,0,0,0,0,0,0,0,0,0,0,0,0.2613,0.2614,0.2728,0.273,0.2731,0.2758,0.2758,0.2757,0.2703,0.2702,0.2701,0.27,0.2614,0.2612,0.261,0,0,0,0,0,0,0,0,0,0,0,0,0,0.2643,0.2615,0.2728,0.2717,0.2717,0.2759,0.2758,0.2757,0.2703,0.2702,0.2701,0.27,0.2614,0.2612,0.2609,0.2615,0,0,0.2602,0.2601,0,0,0,0,0,0,0,0,0.2642,0.2646,0.2717,0.2718,0.2718,0.2736,0.2686,0.2708,0.2703,0.2695,0.27,0.2699,0.2652,0.2647,0.2639,0.2611,0.2607,0.2602,0.26,0.2599,0.2598,0,0,0,0,0,0,0,0.264,0.2645,0.2728,0.2719,0.272,0.2707,0.2709,0.2689,0.2667,0.2696,0.2695,0.2718,0.265,0.2641,0.2636,0.2606,0.2602,0.2599,0.2598,0.2597,0.2583,0.2584,0,0,0,0,0,0,0.2663,0.2643,0.2727,0.273,0.269,0.2711,0.2712,0.2721,0.267,0.2666,0.2719,0.2716,0.2646,0.2639,0.2633,0.2633,0.2599,0.2597,0.2595,0.2582,0.2583,0.2584,0,0,0,0,0,0,0.266,0.2669,0.2726,0.2697,0.2705,0.2715,0.2725,0.2723,0.2731,0.2692,0.2682,0.2733,0.2645,0.2636,0.2628,0.2629,0.2595,0.2593,0.258,0.2582,0.2584,0.2635,0,0,0,0,0,0,0.2656,0.2668,0.2689,0.2699,0.2708,0.2766,0.2728,0.2725,0.2752,0.2747,0.27,0.269,0.2644,0.2632,0.2625,0.2625,0.2591,0.2579,0.2581,0.2583,0.2632,0.2638,0.2644,0,0,0,0,0,0.2651,0.2701,0.269,0.2701,0.2735,0.2769,0.2771,0.2766,0.2754,0.2765,0.2731,0.2692,0.264,0.2631,0.2623,0.2622,0.2578,0.258,0.2583,0.2629,0.2637,0.2644,0,0,0,0,0,0,0.2689,0.2701,0.2689,0.2745,0.276,0.2764,0.2802,0.2786,0.277,0.2767,0.271,0.2698,0.2691,0.2661,0.2652,0.2627,0.2602,0.2603,0.264,0.2647,0.2653,0.2638,0.2589,0,0,0,0,0,0.2704,0.2727,0.2738,0.2788,0.2803,0.2801,0.282,0.2808,0.2802,0.2794,0.276,0.2725,0.2695,0.2676,0.2651,0.2641,0.2634,0.2636,0.2642,0.2647,0.2632,0.2647,0.2653,0.2593,0.2593,0.2593,0,0,0.2762,0.2751,0.2785,0.2795,0.2811,0.282,0.2807,0.2848,0.2835,0.2788,0.2774,0.2753,0.2702,0.2684,0.2678,0.2657,0.2667,0.2651,0.2655,0.2637,0.2651,0.2656,0.2661,0.2594,0.2594,0.2594,0,0,0.2821,0.2853,0.2862,0.2868,0.288,0.2875,0.2892,0.2896,0.2881,0.2876,0.2831,0.2813,0.2779,0.2728,0.2699,0.2728,0.2707,0.273,0.2732,0.2749,0.2753,0.2757,0.2781,0.2787,0.2721,0.2722,0.2722,0,0.2871,0.2863,0.2882,0.2868,0.2879,0.2899,0.2899,0.2901,0.2892,0.2865,0.2881,0.282,0.279,0.2732,0.274,0.2736,0.2753,0.2707,0.2756,0.2759,0.2762,0.2786,0.2791,0.2724,0.2724,0.2724,0.2724,0,0.2887,0.29,0.2925,0.2891,0.291,0.2936,0.2933,0.2933,0.293,0.2906,0.2881,0.2858,0.2808,0.2808,0.2779,0.2772,0.2782,0.2772,0.2736,0.2771,0.2794,0.2799,0.2728,0.2727,0.2727,0.2726,0,0,0.2934,0.2928,0.2932,0.2905,0.2915,0.2922,0.2925,0.2899,0.2871,0.2888,0.2851,0.2825,0.2822,0.2791,0.2768,0.2779,0.283,0.2789,0.2789,0.2809,0.2885,0.2874,0.2878,0.284,0.2841,0.2841,0.2901,0,0.2923,0.2881,0.2889,0.2887,0.2875,0.289,0.2874,0.2858,0.2857,0.2838,0.2829,0.2807,0.2813,0.2802,0.2817,0.2824,0.2841,0.2815,0.2848,0.2849,0.2832,0.2882,0.2664,0.2697,0.2905,0.2906,0.2907,0,0.2889,0.2862,0.284,0.2819,0.2819,0.2829,0.2793,0.2785,0.277,0.2765,0.2766,0.2774,0.2782,0.2803,0.2844,0.2836,0.2861,0.2879,0.2882,0.2848,0.2846,0.269,0.2697,0.2914,0.2913,0.2913,0.2912,0,0.2816,0.282,0.2788,0.279,0.2783,0.2775,0.2776,0.2757,0.2731,0.2741,0.2745,0.2755,0.2787,0.2821,0.2879,0.2868,0.2947,0.2928,0.2938,0.2938,0.2742,0.2724,0.2956,0.2956,0.2956,0.2955,0.2955,0,0.2741,0.2724,0.2765,0.2739,0.2707,0.2734,0.2691,0.2687,0.2691,0.267,0.272,0.2732,0.2803,0.2859,0.289,0.2946,0.296,0.2944,0.2952,0.2758,0.2742,0.291,0.2904,0.2958,0.2957,0.2957,0.2956,0,0.2639,0.2663,0.2642,0.266,0.2664,0.2649,0.2648,0.2606,0.2648,0.2641,0.2656,0.2735,0.2821,0.2885,0.2957,0.2966,0.3005,0.3014,0.2795,0.2776,0.298,0.2976,0.302,0.302,0.302,0.302,0.302,0,0.2564,0.2546,0.2579,0.256,0.2574,0.2562,0.2525,0.2563,0.2551,0.2637,0.2636,0.2746,0.279,0.2912,0.2944,0.2995,0.3032,0.282,0.2744,0.2983,0.2986,0.2982,0.2978,0.2512,0.2508,0.2505,0.2502,0,0.2433,0.2473,0.245,0.2427,0.2417,0.2391,0.239,0.2381,0.2443,0.2479,0.2558,0.2619,0.2756,0.2731,0.2823,0.2814,0.2794,0.2756,0.3048,0.2543,0.2512,0.2514,0.2524,0.2472,0.2475,0.2477,0.2479,0.248,0.2337,0.2315,0.2303,0.2275,0.2258,0.2232,0.2188,0.2221,0.2231,0.2286,0.2424,0.2462,0.2543,0.2578,0.2533,0.2508,0.2694,0.2575,0.2581,0.2592,0.2536,0.2508,0.2457,0.246,0.2462,0.2464,0.2466,0,0.2182,0.2172,0.2134,0.2102,0.2046,0.2093,0.2078,0.2042,0.205,0.214,0.2208,0.2112,0.213,0.2198,0.2132,0.2171,0.2096,0.2074,0.1951,0.1986,0.2015,0.1924,0.1686,0.1683,0.168,0.1677,0,0,0.2093,0.2012,0.2011,0.1904,0.1889,0.1811,0.1799,0.1793,0.1832,0.183,0.1849,0.2025,0.2145,0.1883,0.1877,0.1764,0.184,0.1691,0.2327,0.2217,0.2242,0.2331,0.2235,0,0,0,0,0]},{"header":{"parameterUnit":"m.s-1","parameterCategory":2,"la1":30.2991,"la2":30.254,"lo1":-89.0895,"lo2":-89.0444,"dy":0.0017,"dx":0.0017,"nx":28,"ny":28,"refTime":"2024-04-30T09:00:00:Z","depth":"2","parameterNumber":3,"parameterNumberName":"V-component_of_CURRENTS"},"data":[0,0,0,0,0,0,0,0,0,0,0,0,0,0,0,0,0,0,0,0,0,0,0,0,0,0,0,0,0,0,0,0,0,0,0,0,0,0,0,0,0,0,0,0,0,0,0,0,0,0,0,0,0,0,0,0,0,0,0.0141,0.0142,0,0.0141,0.0141,0.0141,0.0122,0.0122,0.0122,0.0122,0.0015,0.0012,0.0009,0,0,0,0,0,0,0,0,0,0,0,0,0,0.0061,0.0063,0.0141,0.0142,0.0142,0.0141,0.0141,0.0141,0.0122,0.0122,0.0122,0.0122,0.0016,0.0012,0.0009,0,0,0,0,0,0,0,0,0,0,0,0,0,0.0079,0.0063,0.0141,0.0136,0.0135,0.0141,0.0141,0.0141,0.0123,0.0122,0.0122,0.0122,0.0017,0.0013,0.0009,-0.0013,0,0,-0.0004,-0.0006,0,0,0,0,0,0,0,0,0.0078,0.0081,0.0136,0.0136,0.0136,0.0135,0.0074,0.0085,0.0123,0.0123,0.0122,0.0122,0.0048,0.0041,0.0038,-0.0018,-0.0022,-0.0004,-0.0007,-0.0008,-0.001,0,0,0,0,0,0,0,0.0077,0.0081,0.0137,0.0137,0.0137,0.0111,0.0114,0.0076,0.0082,0.0123,0.0123,0.0129,0.0046,0.0042,0.0035,-0.0024,-0.0004,-0.0008,-0.001,-0.0012,-0.0115,-0.0116,0,0,0,0,0,0,0.0088,0.008,0.0137,0.0138,0.011,0.0114,0.0116,0.0132,0.0084,0.0079,0.0129,0.0128,0.0049,0.0039,0.0031,-0.0002,-0.0008,-0.0012,-0.0015,-0.0115,-0.0116,-0.0116,0,0,0,0,0,0,0.0087,0.0094,0.0138,0.0111,0.0115,0.0116,0.0134,0.0133,0.0133,0.0091,0.0082,0.0132,0.0048,0.0036,-0.0005,-0.0006,-0.0014,-0.0018,-0.0115,-0.0115,-0.0116,-0.0065,0,0,0,0,0,0,0.0085,0.0093,0.0112,0.0112,0.0117,0.0151,0.0134,0.0133,0.0139,0.0137,0.009,0.008,0.0047,0.0001,-0.0009,-0.0012,-0.0021,-0.0114,-0.0115,-0.0116,-0.0067,-0.0064,-0.0062,0,0,0,0,0,0.0082,0.0117,0.0113,0.0121,0.0143,0.0152,0.0152,0.0148,0.0139,0.0145,0.0104,0.0082,-0.001,-0.0003,-0.0015,-0.0019,-0.0114,-0.0115,-0.0116,-0.0068,-0.0065,-0.0062,0,0,0,0,0,0,0.0093,0.0119,0.0115,0.0156,0.0155,0.015,0.0164,0.0153,0.0128,0.0123,0.0075,0.0062,0.0025,-0.0005,0.0004,-0.0051,-0.0065,-0.0068,-0.0024,-0.0022,-0.002,0.0001,-0.0024,0,0,0,0,0,0.0105,0.0139,0.0143,0.0174,0.0178,0.0168,0.0172,0.0166,0.0145,0.0136,0.0101,0.0057,0.0013,-0.001,-0.0049,-0.008,-0.0096,-0.0091,-0.0088,-0.0086,-0.0078,-0.0099,-0.0097,-0.0118,-0.0118,-0.0118,0,0,0.0124,0.0137,0.016,0.0179,0.0179,0.0187,0.017,0.0181,0.0176,0.0125,0.0105,0.0064,0.0006,-0.0028,-0.0047,-0.0053,-0.0089,-0.0086,-0.0084,-0.0077,-0.01,-0.0097,-0.0096,-0.0118,-0.0118,-0.0118,0,0,0.0159,0.0183,0.0211,0.0216,0.022,0.0211,0.0216,0.0208,0.0193,0.0168,0.0125,0.0087,0.0029,-0.0011,-0.0042,-0.005,-0.0075,-0.0064,-0.0036,-0.0057,-0.0055,-0.0054,-0.0068,-0.0068,-0.0063,-0.0063,-0.0063,0,0.0173,0.021,0.0218,0.0233,0.0242,0.0224,0.0238,0.0222,0.0197,0.0179,0.0169,0.0084,0.0037,-0.0014,-0.0017,-0.0044,-0.0055,-0.0041,-0.0052,-0.0051,-0.005,-0.0066,-0.0066,-0.0061,-0.0061,-0.0061,-0.0061,0,0.0221,0.0245,0.0262,0.0276,0.0281,0.0298,0.0276,0.0265,0.0244,0.0221,0.0176,0.0118,0.007,0.0045,0.0009,-0.0016,-0.0025,-0.0044,-0.0053,-0.0045,-0.0062,-0.0064,-0.0057,-0.0058,-0.0059,-0.0059,0,0,0.0263,0.029,0.0295,0.0303,0.0307,0.0316,0.0303,0.0284,0.0276,0.0239,0.0226,0.0147,0.0125,0.0089,0.0041,0.0019,0.0009,-0.0004,-0.0006,-0.0007,-0.0028,-0.0036,-0.0039,-0.0007,-0.0007,-0.0007,-0.004,0,0.0291,0.0325,0.0331,0.0359,0.0374,0.0356,0.0348,0.0325,0.0298,0.028,0.0216,0.0186,0.0138,0.012,0.0089,0.003,0.0007,0.0021,-0.0046,-0.0048,-0.0047,-0.0041,-0.0022,-0.0051,-0.0042,-0.0042,-0.0043,0,0.0332,0.0347,0.0379,0.0393,0.0399,0.0411,0.04,0.039,0.035,0.0328,0.029,0.0248,0.0199,0.0167,0.0083,0.0097,0.0041,-0.0003,-0.0005,-0.003,-0.0059,-0.0061,-0.0054,-0.0046,-0.0045,-0.0045,-0.0045,0,0.0353,0.0383,0.0408,0.0419,0.0428,0.0434,0.0436,0.0406,0.0402,0.0367,0.0372,0.03,0.0283,0.0204,0.0111,0.01,0.0031,0.0,-0.0061,-0.0063,-0.0069,-0.0071,-0.0054,-0.0054,-0.0054,-0.0054,-0.0054,0,0.0383,0.0405,0.0426,0.0442,0.0471,0.0467,0.0485,0.0471,0.0461,0.0476,0.0409,0.0415,0.0295,0.0239,0.0141,0.0044,0.0052,-0.005,-0.0071,-0.0052,-0.0052,-0.0067,-0.0068,-0.0055,-0.0055,-0.0055,-0.0054,0,0.0399,0.0415,0.0447,0.047,0.0484,0.0505,0.0535,0.0543,0.0535,0.0559,0.0558,0.0508,0.0441,0.0316,0.0194,0.0095,-0.0009,-0.0049,-0.0016,-0.0032,-0.0098,-0.0096,-0.0122,-0.0122,-0.0123,-0.0123,-0.0123,0,0.0412,0.0429,0.0471,0.0495,0.0512,0.0545,0.0567,0.0576,0.0599,0.0623,0.0646,0.0597,0.0576,0.0394,0.0214,0.0045,0.0007,-0.0066,-0.0095,-0.0087,-0.0105,-0.0102,-0.01,-0.0085,-0.0085,-0.0085,-0.0085,0,0.0427,0.0441,0.0465,0.0515,0.0555,0.0599,0.0645,0.068,0.0704,0.0737,0.0787,0.078,0.0628,0.0467,0.0228,0.0106,-0.004,-0.0072,-0.0068,-0.007,-0.0056,-0.0072,-0.007,-0.0085,-0.0085,-0.0085,-0.0085,-0.0085,0.0435,0.0455,0.0487,0.0535,0.0586,0.0652,0.0694,0.0756,0.0821,0.0891,0.0892,0.0895,0.0713,0.0423,0.0208,-0.0026,-0.0016,-0.0115,-0.0114,-0.0113,-0.0102,-0.0089,-0.0122,-0.0122,-0.0123,-0.0123,-0.0123,0,0.0437,0.0462,0.0504,0.0566,0.062,0.0651,0.074,0.0785,0.0878,0.0965,0.1014,0.0846,0.0677,0.0458,0.0124,-0.0077,-0.0099,-0.0157,-0.0138,-0.0136,-0.0135,-0.0125,-0.0152,-0.0152,-0.0153,-0.0154,0,0,0.0438,0.0467,0.0488,0.0576,0.0629,0.0709,0.0765,0.0843,0.0919,0.0994,0.1017,0.1033,0.077,0.0517,0.0243,0.0047,-0.0003,0.0001,0.0048,0.0106,0.0109,-0.0085,-0.0063,0,0,0,0,0]}],[{"header":{"parameterUnit":"m.s-1","parameterCategory":2,"la1":30.2991,"la2":30.254,"lo1":-89.0895,"lo2":-89.0444,"dy":0.0017,"dx":0.0017,"nx":28,"ny":28,"refTime":"2024-04-30T09:00:00:Z","depth":"4","parameterNumber":2,"parameterNumberName":"U-component_of_CURRENTS"},"data":[0,0,0,0,0,0,0,0,0,0,0,0,0,0,0,0,0,0,0,0,0,0,0,0,0,0,0,0,0,0,0,0,0,0,0,0,0,0,0,0,0,0,0,0,0,0,0,0,0,0,0,0,0,0,0,0,0,0,0.136,0.1361,0,0.1485,0.1487,0.1489,0.1586,0.1586,0.1587,0.1587,0.1731,0.1735,0.1738,0,0,0,0,0,0,0,0,0,0,0,0,0,0.1264,0.1265,0.136,0.1361,0.1362,0.1485,0.1487,0.149,0.1586,0.1586,0.1587,0.1587,0.173,0.1734,0.1738,0,0,0,0,0,0,0,0,0,0,0,0,0,0.1344,0.1266,0.136,0.1422,0.1428,0.1485,0.1487,0.149,0.1586,0.1586,0.1587,0.1588,0.1729,0.1734,0.1739,0.1756,0,0,0.1754,0.1757,0,0,0,0,0,0,0,0,0.1339,0.1348,0.1411,0.1417,0.1425,0.1516,0.1506,0.1578,0.1586,0.1531,0.1587,0.1588,0.1657,0.1668,0.1697,0.1763,0.1769,0.1755,0.1758,0.176,0.1762,0,0,0,0,0,0,0,0.1333,0.1343,0.1415,0.1412,0.142,0.1463,0.1475,0.1521,0.1593,0.1536,0.1542,0.1548,0.1662,0.1692,0.1701,0.1771,0.1755,0.1759,0.1762,0.1764,0.1947,0.1949,0,0,0,0,0,0,0.1304,0.1338,0.1411,0.1418,0.1377,0.1464,0.1477,0.149,0.1592,0.1607,0.1547,0.1552,0.1683,0.1695,0.1707,0.182,0.176,0.1765,0.1768,0.1945,0.1948,0.195,0,0,0,0,0,0,0.1302,0.131,0.1406,0.1376,0.1391,0.1463,0.1478,0.1492,0.1554,0.16,0.1616,0.1596,0.1684,0.1699,0.1777,0.1823,0.1767,0.1772,0.1943,0.1946,0.1949,0.1991,0,0,0,0,0,0,0.1299,0.1308,0.1333,0.1374,0.1391,0.1461,0.1477,0.1494,0.1552,0.1561,0.1647,0.1659,0.1686,0.1769,0.1782,0.1829,0.1776,0.1941,0.1945,0.1948,0.1987,0.1995,0.2001,0,0,0,0,0,0.1295,0.1316,0.1334,0.1344,0.1415,0.1461,0.1476,0.1532,0.1554,0.159,0.1647,0.1658,0.18,0.1775,0.179,0.1839,0.1939,0.1944,0.1947,0.1984,0.1993,0.2001,0,0,0,0,0,0,0.1283,0.1329,0.1349,0.1383,0.1428,0.1476,0.1515,0.1548,0.1623,0.1642,0.1683,0.17,0.1787,0.1804,0.1775,0.1901,0.1871,0.1878,0.1894,0.1903,0.191,0.1901,0.178,0,0,0,0,0,0.1289,0.1329,0.1365,0.14,0.1418,0.1472,0.1507,0.1545,0.16,0.1636,0.1695,0.1755,0.181,0.1848,0.1901,0.1968,0.1968,0.2008,0.2015,0.2021,0.2024,0.2054,0.2064,0.1963,0.1963,0.1963,0,0,0.1289,0.1325,0.1345,0.1403,0.1442,0.148,0.1498,0.1556,0.1605,0.1638,0.1739,0.1788,0.1834,0.1915,0.1954,0.1938,0.2052,0.2026,0.2031,0.2031,0.2059,0.2069,0.2077,0.1966,0.1965,0.1965,0,0,0.1302,0.1344,0.1376,0.1418,0.148,0.1513,0.1531,0.1601,0.1653,0.1736,0.1776,0.1847,0.1937,0.1982,0.201,0.2084,0.2088,0.211,0.2142,0.2172,0.218,0.2187,0.2202,0.221,0.2112,0.2112,0.2113,0,0.1293,0.1348,0.1394,0.1435,0.147,0.1524,0.1561,0.1619,0.1714,0.1762,0.1774,0.1922,0.1965,0.2051,0.2084,0.2101,0.2114,0.2105,0.2179,0.2186,0.2193,0.2207,0.2215,0.2115,0.2115,0.2114,0.2114,0,0.1333,0.1379,0.1401,0.1471,0.1519,0.1563,0.1626,0.17,0.1761,0.1817,0.193,0.1989,0.2074,0.2103,0.212,0.2201,0.2194,0.2183,0.2153,0.2205,0.2217,0.2225,0.2119,0.2118,0.2117,0.2116,0,0,0.1291,0.1399,0.1415,0.1451,0.1543,0.1581,0.1668,0.1755,0.1823,0.1917,0.1996,0.2099,0.2141,0.2175,0.2212,0.2242,0.2303,0.2241,0.2241,0.2246,0.2368,0.2232,0.2227,0.2309,0.2311,0.2312,0.2357,0,0.1301,0.1378,0.144,0.1514,0.1547,0.163,0.1706,0.1803,0.1886,0.1982,0.2053,0.2144,0.2163,0.2214,0.2252,0.2296,0.2326,0.2291,0.2324,0.2325,0.219,0.2233,0.2318,0.2363,0.2364,0.2366,0.2367,0,0.1325,0.1372,0.1443,0.1539,0.1563,0.1626,0.1759,0.1835,0.1971,0.2039,0.2135,0.2191,0.2281,0.227,0.2363,0.2344,0.2365,0.2381,0.2382,0.2244,0.2203,0.2301,0.2381,0.2379,0.2378,0.2378,0.2377,0,0.1289,0.1379,0.1438,0.1472,0.1585,0.1651,0.1726,0.1866,0.1944,0.2081,0.2144,0.2247,0.231,0.2353,0.2407,0.2394,0.2479,0.2456,0.2352,0.2343,0.2432,0.2423,0.2507,0.2507,0.2507,0.2507,0.2507,0,0.128,0.1329,0.1432,0.1466,0.1549,0.164,0.1754,0.1849,0.1981,0.2065,0.2174,0.2236,0.2336,0.2398,0.2423,0.2412,0.2496,0.2361,0.2346,0.2449,0.2443,0.2437,0.2428,0.2509,0.2508,0.2508,0.2508,0,0.1246,0.1315,0.1374,0.1489,0.1538,0.1603,0.1762,0.1836,0.197,0.2076,0.2119,0.2253,0.2323,0.24,0.2471,0.242,0.2427,0.2404,0.2517,0.2507,0.2264,0.2258,0.2271,0.2267,0.2263,0.226,0.2257,0,0.1233,0.1263,0.1381,0.1429,0.149,0.1602,0.1682,0.1825,0.1893,0.2066,0.2095,0.2214,0.2287,0.2271,0.2362,0.2387,0.2371,0.2352,0.2296,0.2256,0.2241,0.2241,0.2239,0.2252,0.2251,0.225,0.2249,0,0.1193,0.1248,0.1304,0.1397,0.1481,0.1557,0.1671,0.1703,0.1854,0.1982,0.2021,0.206,0.2132,0.2177,0.2219,0.2236,0.2346,0.2313,0.2319,0.2267,0.2232,0.2221,0.2224,0.2236,0.2238,0.2239,0.224,0,0.1171,0.1195,0.1281,0.1352,0.1442,0.1482,0.1551,0.1617,0.1691,0.1858,0.1864,0.1989,0.2101,0.2101,0.2141,0.2145,0.2112,0.2039,0.2059,0.2075,0.1992,0.1918,0.1814,0,0,0,0,0,0.1145,0.1171,0.1232,0.1294,0.1371,0.1423,0.1532,0.1596,0.1721,0.1701,0.1777,0.1832,0.1878,0.1946,0.1912,0.2072,0.2132,0.2025,0.2061,0.2164,0.2179,0.2102,0,0,0,0,0,0,0.1133,0.1193,0.1207,0.1225,0.1253,0.1325,0.1382,0.1467,0.146,0.159,0.1623,0.1726,0.18,0.1878,0.1878,0.19,0.1887,0.2108,0.2103,0.2156,0.2169,0.2181,0.2107,0,0,0,0,0]},{"header":{"parameterUnit":"m.s-1","parameterCategory":2,"la1":30.2991,"la2":30.254,"lo1":-89.0895,"lo2":-89.0444,"dy":0.0017,"dx":0.0017,"nx":28,"ny":28,"refTime":"2024-04-30T09:00:00:Z","depth":"4","parameterNumber":3,"parameterNumberName":"V-component_of_CURRENTS"},"data":[0,0,0,0,0,0,0,0,0,0,0,0,0,0,0,0,0,0,0,0,0,0,0,0,0,0,0,0,0,0,0,0,0,0,0,0,0,0,0,0,0,0,0,0,0,0,0,0,0,0,0,0,0,0,0,0,0,0,0.0018,0.0018,0,0.0021,0.0021,0.0021,0.0008,0.0008,0.0007,0.0007,-0.0054,-0.0056,-0.0057,0,0,0,0,0,0,0,0,0,0,0,0,0,-0.0013,-0.0013,0.0018,0.0018,0.0017,0.0021,0.0021,0.0021,0.0008,0.0008,0.0007,0.0006,-0.0054,-0.0055,-0.0057,0,0,0,0,0,0,0,0,0,0,0,0,0,-0.0003,-0.0012,0.0018,0.001,0.001,0.0021,0.0021,0.0021,0.0008,0.0008,0.0007,0.0006,-0.0054,-0.0055,-0.0057,-0.0052,0,0,-0.0062,-0.0063,0,0,0,0,0,0,0,0,-0.0003,-0.0001,0.0012,0.0011,0.001,0.0012,-0.0013,-0.0007,0.0009,0.001,0.0007,0.0006,-0.0039,-0.0042,-0.0036,-0.0055,-0.0058,-0.0062,-0.0063,-0.0064,-0.0065,0,0,0,0,0,0,0,-0.0004,-0.0002,0.002,0.0011,0.0011,0.0002,0.0003,-0.0011,-0.001,0.001,0.0009,0.0007,-0.0039,-0.0034,-0.0038,-0.0059,-0.0062,-0.0064,-0.0065,-0.0066,-0.0114,-0.0114,0,0,0,0,0,0,-0.0005,-0.0002,0.002,0.002,-0.0,0.0003,0.0004,0.0013,-0.0008,-0.0012,0.0008,0.0006,-0.0031,-0.0036,-0.004,-0.0055,-0.0064,-0.0066,-0.0067,-0.0114,-0.0114,-0.0114,0,0,0,0,0,0,-0.0006,-0.0003,0.002,0.0007,0.0009,0.0004,0.0015,0.0014,0.0014,-0.001,-0.0015,0.0008,-0.0032,-0.0038,-0.0058,-0.0057,-0.0067,-0.0068,-0.0114,-0.0114,-0.0114,-0.0073,0,0,0,0,0,0,-0.0007,-0.0003,0.0006,0.0008,0.001,0.0032,0.0015,0.0014,0.0014,0.0012,-0.0011,-0.0017,-0.0033,-0.0055,-0.006,-0.006,-0.0069,-0.0113,-0.0114,-0.0114,-0.0074,-0.0072,-0.007,0,0,0,0,0,-0.0007,0.0011,0.0007,0.0009,0.0022,0.0032,0.0034,0.0027,0.0015,0.0024,-0.0001,-0.0016,-0.0062,-0.0056,-0.0062,-0.0062,-0.0113,-0.0114,-0.0114,-0.0075,-0.0073,-0.007,0,0,0,0,0,0,0.0005,0.0011,0.0007,0.0027,0.003,0.003,0.0036,0.0029,0.0019,0.0011,-0.0015,-0.0022,-0.0042,-0.0059,-0.0052,-0.008,-0.0092,-0.0093,-0.006,-0.0058,-0.0056,-0.0048,-0.0071,0,0,0,0,0,0.0011,0.0024,0.0027,0.0041,0.0043,0.0038,0.0041,0.0037,0.0027,0.0022,0.0006,-0.0021,-0.0046,-0.0057,-0.0077,-0.0087,-0.0105,-0.0094,-0.0092,-0.009,-0.0089,-0.0113,-0.0113,-0.0116,-0.0116,-0.0116,0,0,0.0013,0.0023,0.0026,0.0043,0.0043,0.0056,0.0038,0.0045,0.0048,0.0016,0.0013,-0.0013,-0.0048,-0.0062,-0.0072,-0.0076,-0.0098,-0.0091,-0.0089,-0.0088,-0.0114,-0.0114,-0.0113,-0.0117,-0.0117,-0.0117,0,0,0.0033,0.0039,0.0056,0.0065,0.0072,0.0069,0.007,0.0071,0.0063,0.006,0.0028,0.0002,-0.0021,-0.0048,-0.0066,-0.0067,-0.0088,-0.0075,-0.0056,-0.008,-0.0079,-0.0079,-0.0094,-0.0096,-0.0072,-0.0072,-0.0072,0,0.0041,0.0065,0.0062,0.0087,0.0093,0.0075,0.0094,0.0087,0.0081,0.007,0.0062,0.0013,-0.0015,-0.0047,-0.0048,-0.0062,-0.0075,-0.0059,-0.0076,-0.0076,-0.0077,-0.0092,-0.0094,-0.007,-0.0071,-0.0071,-0.0071,0,0.0076,0.0095,0.0106,0.0128,0.0135,0.0148,0.0138,0.0135,0.0119,0.0108,0.0079,0.0043,0.0013,-0.0003,-0.0025,-0.0048,-0.0055,-0.007,-0.0077,-0.0074,-0.009,-0.0093,-0.0068,-0.0068,-0.0069,-0.0069,0,0,0.0098,0.0126,0.013,0.0143,0.0158,0.0166,0.0165,0.0158,0.0152,0.0134,0.0124,0.0075,0.0053,0.003,-0.0004,-0.0027,-0.0043,-0.0045,-0.0047,-0.0051,-0.0087,-0.0084,-0.0088,-0.0057,-0.0057,-0.0058,-0.0094,0,0.0127,0.0174,0.0179,0.0208,0.0227,0.0213,0.0215,0.0203,0.0184,0.0172,0.0121,0.0102,0.0066,0.0053,0.0023,-0.0026,-0.005,-0.0031,-0.0097,-0.0099,-0.009,-0.0091,-0.0059,-0.0096,-0.0097,-0.0097,-0.0098,0,0.0165,0.0189,0.0228,0.0243,0.0249,0.0264,0.0256,0.0257,0.0228,0.0213,0.0182,0.0148,0.0105,0.0079,0.0,0.0016,-0.0032,-0.007,-0.0072,-0.0087,-0.0102,-0.0104,-0.0104,-0.0103,-0.0103,-0.0102,-0.0102,0,0.0183,0.0221,0.0249,0.0261,0.0278,0.0283,0.0286,0.0269,0.027,0.0243,0.0247,0.0184,0.0167,0.0094,0.0016,0.001,-0.0064,-0.0084,-0.0129,-0.013,-0.0138,-0.0138,-0.0141,-0.0141,-0.014,-0.014,-0.014,0,0.0216,0.0238,0.0261,0.028,0.0304,0.0307,0.0324,0.0315,0.0312,0.0324,0.0273,0.0272,0.0172,0.0118,0.0034,-0.005,-0.0051,-0.0125,-0.014,-0.012,-0.0117,-0.014,-0.014,-0.0142,-0.0141,-0.0141,-0.0141,0,0.0231,0.0252,0.0282,0.0305,0.0317,0.0332,0.0361,0.037,0.0369,0.0387,0.0386,0.0342,0.0277,0.0173,0.0062,-0.0013,-0.0104,-0.0137,-0.0095,-0.0108,-0.0159,-0.0156,-0.0191,-0.0191,-0.0191,-0.0191,-0.0191,0,0.0246,0.0265,0.0301,0.032,0.0333,0.0361,0.0382,0.0395,0.0414,0.0431,0.0444,0.0399,0.0355,0.0211,0.009,-0.0067,-0.0097,-0.0148,-0.017,-0.0154,-0.0165,-0.0162,-0.0159,-0.0192,-0.0192,-0.0192,-0.0192,0,0.026,0.0271,0.0291,0.0333,0.0364,0.04,0.0437,0.0461,0.0483,0.0489,0.05,0.0428,0.0357,0.0228,0.011,-0.0009,-0.0118,-0.015,-0.0151,-0.0173,-0.0156,-0.0166,-0.0163,-0.0193,-0.0192,-0.0192,-0.0192,0,0.0263,0.0274,0.0302,0.0336,0.0382,0.0429,0.0448,0.0484,0.0509,0.0535,0.054,0.0465,0.0422,0.0259,0.0148,0.0035,-0.0005,-0.0058,-0.0065,-0.0065,-0.0027,0.0014,0.0019,0,0,0,0,0,0.0261,0.027,0.0302,0.0342,0.0392,0.0421,0.048,0.0498,0.0534,0.055,0.0549,0.0486,0.034,0.0278,0.0166,0.0119,-0.0043,-0.002,-0.0112,-0.0196,-0.0196,-0.0172,0,0,0,0,0,0,0.0256,0.0281,0.0294,0.0347,0.0376,0.0434,0.0475,0.0501,0.0512,0.0536,0.0465,0.0442,0.03,0.0405,0.016,0.0126,0.0047,-0.0084,-0.0087,-0.0197,-0.0196,-0.0195,-0.0171,0,0,0,0,0]}]]